This is the latest recevied weather packets stored in our database for station/object N7CW. If no packets are shown the sender has not sent any weather packets the latest 10 day(s).
| Time | Temp. | Humidity | Pressure | Rain* | Wind** | Luminosity | Snow |
|---|---|---|---|---|---|---|---|
| 1777675140 | 19.44° C | 21% | 1015.2 hPa | 0 mm | - | 204 W/m² | - |
| 1777674836 | 20° C | 21% | 1015.2 hPa | 0 mm | - | 143 W/m² | - |
| 1777674533 | 20° C | 21% | 1015.3 hPa | 0 mm | - | 142 W/m² | - |
| 1777674231 | 20° C | 21% | 1015.1 hPa | 0 mm | - | 149 W/m² | - |
| 1777673927 | 20° C | 21% | 1015.1 hPa | 0 mm | - | 172 W/m² | - |
| 1777673623 | 20° C | 21% | 1015.3 hPa | 0 mm | - | 185 W/m² | - |
| 1777673322 | 19.44° C | 21% | 1015.3 hPa | 0 mm | - | 190 W/m² | - |
| 1777673018 | 19.44° C | 21% | 1015.3 hPa | 0 mm | - | 471 W/m² | - |
| 1777672715 | 19.44° C | 22% | 1015.5 hPa | 0 mm | - | 232 W/m² | - |
| 1777672411 | 19.44° C | 21% | 1015.7 hPa | 0 mm | - | 214 W/m² | - |
| 1777672107 | 20° C | 21% | 1015.3 hPa | 0 mm | - | 205 W/m² | - |
| 1777671802 | 20.56° C | 21% | 1015.4 hPa | 0 mm | - | 207 W/m² | - |
| 1777671499 | 21.11° C | 20% | 1015.8 hPa | 0 mm | - | 194 W/m² | - |
| 1777671195 | 20.56° C | 21% | 1015.7 hPa | 0 mm | - | 770 W/m² | - |
| 1777670891 | 20.56° C | 20% | 1015.8 hPa | 0 mm | - | 838 W/m² | - |
| 1777670588 | 20.56° C | 21% | 1015.7 hPa | 0 mm | - | 824 W/m² | - |
| 1777670285 | 20.56° C | 20% | 1015.8 hPa | 0 mm | - | 842 W/m² | - |
| 1777669982 | 21.67° C | 19% | 1015.8 hPa | 0 mm | - | 862 W/m² | - |
| 1777669679 | 19.44° C | 21% | 1015.8 hPa | 0 mm | - | 838 W/m² | - |
| 1777669375 | 19.44° C | 21% | 1015.5 hPa | 0 mm | - | 187 W/m² | - |
| 1777669072 | 20° C | 21% | 1015.9 hPa | 0 mm | - | 175 W/m² | - |
| 1777668769 | 19.44° C | 21% | 1016 hPa | 0 mm | - | 196 W/m² | - |
| 1777668466 | 19.44° C | 21% | 1015.9 hPa | 0 mm | - | 249 W/m² | - |
| 1777668163 | 20.56° C | 20% | 1015.9 hPa | 0 mm | - | 654 W/m² | - |
| 1777667859 | 21.11° C | 20% | 1015.9 hPa | 0 mm | - | 945 W/m² | - |
* Rain latest hour (hover to see other rain measurements)
** Current wind speed in m/s (hover to see current wind gust speed)